Погода в Цанчжоу

Китай     38°19′18″N   116°51′17″E
темп.,
°C
ветер,
м/с
пор.,
м/с
влажн.,
%
обл.,
%
осадки,
мм/ч
давл.,
гПа
погр.,
м
17 октября, вс
вс1723:00+5юз33410 0.0 103831
02:00+4юз34490 0.0 103771
05:00+3юз33520 0.0 103551
08:00+5юз35490 0.0 1034171
11:00+11юз56340 0.0 1032810
14:00+13юз57280 0.0 10281206
17:00+11ююз47422 0.0 1027183
20:00+8ююз48545 0.0 1026160
18 октября, пн
пн1823:00+7ююз411590 0.0 1025238
02:00+6ююз4126414 0.0 1023263
05:00+6ю4116962 0.0 1022271
08:00+8ююз411644 0.0 1022370
11:00+13юз57506 0.0 1021746
14:00+16юз45455 0.0 10191087
17:00+15зюз12565 0.0 102011
20:00+12св226217 0.0 102211
19 октября, вт
вт1923:00+10ссв49680 0.0 1025153
02:00+10св915560 0.0 1028615
05:00+8ссв613600 0.0 1030404
08:00+8ссв611510 0.0 1032535
11:00+12св672661 0.0 10331287
14:00+13св4424100 0.0 10311572
17:00+11св2334100 0.0 103050
20:00+9юв2245100 0.0 103212
20 октября, ср
ср2023:00+8ю2248100 0.0 103124
02:00+7юз2250100 0.0 103123
05:00+6юз2252100 0.0 102910
08:00+7ююз235192 0.0 1029114
11:00+12юз343378 0.0 1028759
14:00+14юз34335 0.0 10241199
17:00+13юз3347100 0.0 102455
20:00+10ююз34590 0.0 102468
21 октября, чт
чт2123:00+9юз37725 0.0 1023127
02:00+8юз33790 0.0 102354
05:00+7зюз11840 0.0 102210
08:00+9ссз23740 0.0 1024122
11:00+15с34320 0.0 1024903
14:00+17с46200 0.0 10231617
17:00+14ссв22310 0.0 102314
20:00+12ю11340 0.0 102410